RYO45R EPWR-ENTO

Flight info

Callsign RYO45R
Flight time 1h 5m
Altitude 40000
Route XIDNA L617 ADVAB DCT GOSOT DCT SABAK L617 REPKU
Aircraft RYO/M-SDE2E3FGHIRWXY/LB1

Departure

Time 2026-05-04 21:04
Airport Copernicus Wrocław Airport (EPWR)

Arrival

Time 2026-05-04 22:09
Airport Sandefjord Airport, Torp (ENTO)
Time Latitude Longitude Altitude Speed Heading
2026-05-04 20:34 51.10786 16.88191 411 ft 0 kts 27°
2026-05-04 20:55 51.10779 16.88186 409 ft 4 kts 26°
2026-05-04 20:56 51.10757 16.88166 409 ft 4 kts 52°
2026-05-04 20:56 51.10750 16.88131 411 ft 4 kts 100°
2026-05-04 20:56 51.10755 16.88105 411 ft 1 kts 116°
2026-05-04 20:56 51.10756 16.88102 411 ft 0 kts 116°
2026-05-04 20:59 51.10752 16.88115 411 ft 6 kts 116°
2026-05-04 20:59 51.10716 16.88231 408 ft 15 kts 116°
2026-05-04 20:59 51.10666 16.88390 406 ft 17 kts 116°
2026-05-04 21:00 51.10611 16.88572 410 ft 19 kts 116°
2026-05-04 21:00 51.10550 16.88774 408 ft 21 kts 115°
2026-05-04 21:00 51.10485 16.88994 408 ft 23 kts 115°
2026-05-04 21:00 51.10414 16.89232 409 ft 25 kts 115°
2026-05-04 21:01 51.10338 16.89486 410 ft 26 kts 115°
2026-05-04 21:01 51.10258 16.89755 409 ft 28 kts 115°
2026-05-04 21:01 51.10184 16.90006 407 ft 2 kts 115°
2026-05-04 21:01 51.10171 16.90016 409 ft 2 kts 182°
2026-05-04 21:02 51.10151 16.89996 409 ft 7 kts 213°
2026-05-04 21:02 51.10086 16.89934 409 ft 12 kts 208°
2026-05-04 21:02 51.10012 16.89870 409 ft 12 kts 208°
2026-05-04 21:02 51.09938 16.89805 409 ft 12 kts 221°
2026-05-04 21:03 51.09932 16.89681 409 ft 11 kts 292°
2026-05-04 21:03 51.09934 16.89671 409 ft 1 kts 294°
2026-05-04 21:03 51.10043 16.89306 411 ft 79 kts 295°
2026-05-04 21:03 51.10401 16.88145 405 ft 152 kts 296°
2026-05-04 21:04 51.10921 16.86478 962 ft 170 kts 297°
2026-05-04 21:04 51.11449 16.84773 1849 ft 180 kts 296°
2026-05-04 21:04 51.12016 16.82961 2661 ft 191 kts 295°
2026-05-04 21:04 51.12623 16.80950 2970 ft 212 kts 296°
2026-05-04 21:05 51.13301 16.78732 3138 ft 234 kts 296°
2026-05-04 21:05 51.14052 16.76246 3221 ft 263 kts 295°
2026-05-04 21:05 51.14843 16.73604 3963 ft 263 kts 294°
2026-05-04 21:05 51.15619 16.70999 4693 ft 265 kts 294°
2026-05-04 21:06 51.16431 16.68283 5353 ft 271 kts 293°
2026-05-04 21:06 51.17233 16.65609 6064 ft 272 kts 293°
2026-05-04 21:06 51.18060 16.62893 6791 ft 274 kts 297°
2026-05-04 21:06 51.19331 16.60592 7475 ft 282 kts 322°
2026-05-04 21:07 51.21115 16.59248 8224 ft 287 kts 343°
2026-05-04 21:07 51.23104 16.58825 8932 ft 294 kts
2026-05-04 21:07 51.25055 16.59824 9653 ft 298 kts 26°
2026-05-04 21:07 51.26897 16.61415 10346 ft 304 kts 28°
2026-05-04 21:08 51.28747 16.63100 11001 ft 309 kts 28°
2026-05-04 21:08 51.30641 16.64815 11668 ft 315 kts 28°
2026-05-04 21:08 51.32562 16.66526 12369 ft 319 kts 27°
2026-05-04 21:08 51.34521 16.68257 13035 ft 324 kts 27°
2026-05-04 21:09 51.36464 16.70112 13769 ft 328 kts 38°
2026-05-04 21:09 51.37955 16.72869 14519 ft 330 kts 60°
2026-05-04 21:09 51.39008 16.76154 15254 ft 333 kts 64°
2026-05-04 21:09 51.40027 16.79507 15951 ft 337 kts 64°
2026-05-04 21:10 51.41074 16.82878 16655 ft 340 kts 60°
2026-05-04 21:10 51.42596 16.85765 17277 ft 342 kts 36°
2026-05-04 21:10 51.44730 16.87572 17517 ft 357 kts 16°
2026-05-04 21:10 51.47164 16.88779 17689 ft 375 kts 14°
2026-05-04 21:11 51.49721 16.89960 17998 ft 388 kts 14°
2026-05-04 21:11 51.52338 16.91172 18569 ft 393 kts 14°
2026-05-04 21:11 51.54973 16.92421 19232 ft 395 kts 14°
2026-05-04 21:11 51.57576 16.93679 19842 ft 398 kts 14°
2026-05-04 21:12 51.60237 16.94981 20405 ft 402 kts 14°
2026-05-04 21:12 51.62924 16.96304 20964 ft 406 kts 14°
2026-05-04 21:12 51.65636 16.97642 21535 ft 408 kts 14°
2026-05-04 21:12 51.68414 16.98878 22048 ft 410 kts
2026-05-04 21:13 51.71210 16.98894 22517 ft 407 kts 347°
2026-05-04 21:13 51.73901 16.97601 23065 ft 404 kts 336°
2026-05-04 21:13 51.76524 16.95953 23559 ft 406 kts 335°
2026-05-04 21:13 51.79156 16.94241 24011 ft 410 kts 335°
2026-05-04 21:14 51.81814 16.92510 24455 ft 413 kts 335°
2026-05-04 21:14 51.84488 16.90789 24919 ft 415 kts 335°
2026-05-04 21:14 51.87184 16.89074 25400 ft 417 kts 335°
2026-05-04 21:14 51.89889 16.87365 25845 ft 419 kts 335°
2026-05-04 21:15 51.92618 16.85647 26270 ft 421 kts 335°
2026-05-04 21:15 51.95354 16.83926 26681 ft 423 kts 335°
2026-05-04 21:15 51.98111 16.82189 27087 ft 425 kts 335°
2026-05-04 21:15 52.00873 16.80446 27476 ft 427 kts 335°
2026-05-04 21:16 52.03651 16.78691 27838 ft 430 kts 334°
2026-05-04 21:16 52.06456 16.76916 28218 ft 432 kts 334°
2026-05-04 21:16 52.09261 16.75138 28599 ft 433 kts 334°
2026-05-04 21:16 52.12069 16.73356 28941 ft 435 kts 334°
2026-05-04 21:17 52.13938 16.72165 29156 ft 436 kts 334°
2026-05-04 21:17 52.17679 16.69739 29571 ft 438 kts 334°
2026-05-04 21:17 52.20516 16.67878 29879 ft 440 kts 334°
2026-05-04 21:17 52.23357 16.66008 30184 ft 441 kts 333°
2026-05-04 21:18 52.25285 16.64738 30390 ft 443 kts 333°
2026-05-04 21:18 52.28143 16.62854 30667 ft 444 kts 334°
2026-05-04 21:18 52.31012 16.60962 31009 ft 444 kts 334°
2026-05-04 21:18 52.33868 16.59080 31412 ft 442 kts 333°
2026-05-04 21:19 52.36721 16.57198 31793 ft 441 kts 333°
2026-05-04 21:19 52.39562 16.55321 32120 ft 441 kts 333°
2026-05-04 21:19 52.42405 16.53441 32400 ft 441 kts 333°
2026-05-04 21:19 52.45249 16.51556 32743 ft 440 kts 333°
2026-05-04 21:20 52.48077 16.49679 33107 ft 438 kts 333°
2026-05-04 21:20 52.50899 16.47806 33422 ft 437 kts 333°
2026-05-04 21:20 52.53724 16.45926 33649 ft 439 kts 333°
2026-05-04 21:20 52.56519 16.44062 33849 ft 440 kts 333°
2026-05-04 21:21 52.59359 16.42167 34083 ft 441 kts 333°
2026-05-04 21:21 52.62238 16.40246 34382 ft 440 kts 333°
2026-05-04 21:21 52.65028 16.38382 34677 ft 439 kts 333°
2026-05-04 21:21 52.67858 16.36485 34942 ft 438 kts 333°
2026-05-04 21:22 52.70717 16.34567 35155 ft 439 kts 333°
2026-05-04 21:22 52.73552 16.32661 35371 ft 440 kts 333°
2026-05-04 21:22 52.76347 16.30779 35629 ft 439 kts 333°
2026-05-04 21:22 52.79171 16.28876 35894 ft 437 kts 333°
2026-05-04 21:23 52.81989 16.26977 36107 ft 438 kts 333°
2026-05-04 21:23 52.84812 16.25069 36296 ft 439 kts 333°
2026-05-04 21:23 52.87644 16.23150 36468 ft 439 kts 333°
2026-05-04 21:23 52.90466 16.21237 36677 ft 439 kts 333°
2026-05-04 21:24 52.93284 16.19326 37053 ft 434 kts 333°
2026-05-04 21:24 52.96062 16.17443 37501 ft 428 kts 333°
2026-05-04 21:24 52.98810 16.15575 37700 ft 428 kts 333°
2026-05-04 21:24 53.01575 16.13687 37728 ft 432 kts 333°
2026-05-04 21:25 53.04360 16.11783 37832 ft 433 kts 333°
2026-05-04 21:25 53.07142 16.09881 38045 ft 432 kts 333°
2026-05-04 21:25 53.09919 16.07981 38242 ft 431 kts 333°
2026-05-04 21:25 53.12698 16.06076 38349 ft 433 kts 333°
2026-05-04 21:26 53.15487 16.04162 38464 ft 433 kts 333°
2026-05-04 21:26 53.18270 16.02250 38630 ft 433 kts 333°
2026-05-04 21:26 53.21054 16.00335 38791 ft 433 kts 333°
2026-05-04 21:26 53.23841 15.98414 38910 ft 434 kts 333°
2026-05-04 21:27 53.26629 15.96490 39045 ft 434 kts 333°
2026-05-04 21:27 53.29416 15.94564 39193 ft 433 kts 333°
2026-05-04 21:27 53.32202 15.92636 39295 ft 434 kts 333°
2026-05-04 21:27 53.34993 15.90699 39351 ft 436 kts 333°
2026-05-04 21:28 53.40604 15.86803 39593 ft 436 kts 333°
2026-05-04 21:28 53.43403 15.84857 39702 ft 436 kts 333°
2026-05-04 21:28 53.46214 15.82897 39741 ft 438 kts 333°
2026-05-04 21:29 53.51819 15.78981 39901 ft 440 kts 333°
2026-05-04 21:29 53.57483 15.75016 39956 ft 442 kts 333°
2026-05-04 21:30 53.63181 15.71014 39970 ft 445 kts 333°
2026-05-04 21:30 53.74134 15.63281 39966 ft 451 kts 333°
2026-05-04 21:31 53.91455 15.50977 39950 ft 445 kts 333°
2026-05-04 21:32 54.02721 15.42911 39949 ft 434 kts 333°
2026-05-04 21:32 54.13811 15.34920 39977 ft 433 kts 333°
2026-05-04 21:32 54.18525 15.31507 39825 ft 440 kts 333°
2026-05-04 21:33 54.23593 15.27823 39424 ft 451 kts 333°
2026-05-04 21:33 54.26472 15.25733 39165 ft 446 kts 333°
2026-05-04 21:33 54.29293 15.23687 38898 ft 436 kts 333°
2026-05-04 21:33 54.32063 15.21677 38635 ft 427 kts 332°
2026-05-04 21:34 54.34772 15.19704 38385 ft 421 kts 332°
2026-05-04 21:34 54.37469 15.17732 38151 ft 422 kts 332°
2026-05-04 21:34 54.40175 15.15746 38008 ft 423 kts 332°
2026-05-04 21:35 54.50319 15.08288 37957 ft 423 kts 332°
2026-05-04 21:35 54.61172 15.00270 37977 ft 429 kts 332°
2026-05-04 21:36 54.72187 14.92084 37970 ft 437 kts 332°
2026-05-04 21:36 54.81470 14.85122 37949 ft 433 kts 330°
2026-05-04 21:37 54.91117 14.76813 37953 ft 418 kts 328°
2026-05-04 21:37 55.01399 14.67764 37983 ft 419 kts 328°
2026-05-04 21:38 55.11969 14.58499 37979 ft 431 kts 328°
2026-05-04 21:38 55.22790 14.48973 37956 ft 437 kts 329°
2026-05-04 21:39 55.33563 14.39438 37944 ft 427 kts 328°
2026-05-04 21:39 55.44027 14.30112 37949 ft 418 kts 328°
2026-05-04 21:40 55.54426 14.20778 37965 ft 423 kts 328°
2026-05-04 21:40 55.65076 14.11165 37957 ft 435 kts 328°
2026-05-04 21:41 55.75882 14.01361 37933 ft 435 kts 328°
2026-05-04 21:41 55.86522 13.91652 37927 ft 423 kts 328°
2026-05-04 21:42 55.96809 13.82196 37952 ft 418 kts 328°
2026-05-04 21:42 56.07314 13.72473 37969 ft 428 kts 328°
2026-05-04 21:43 56.17943 13.62583 37957 ft 437 kts 328°
2026-05-04 21:43 56.28674 13.52544 37935 ft 431 kts 328°
2026-05-04 21:44 56.39135 13.42688 37941 ft 418 kts 327°
2026-05-04 21:44 56.49388 13.32961 37962 ft 418 kts 327°
2026-05-04 21:45 56.59828 13.22995 37957 ft 430 kts 327°
2026-05-04 21:45 56.69799 13.13428 37939 ft 433 kts 327°
2026-05-04 21:46 56.80291 13.03307 37916 ft 419 kts 327°
2026-05-04 21:46 56.90469 12.93412 37939 ft 412 kts 327°
2026-05-04 21:47 57.00691 12.83402 37948 ft 423 kts 327°
2026-05-04 21:47 57.11190 12.73067 37934 ft 432 kts 327°
2026-05-04 21:48 57.21678 12.62688 37408 ft 426 kts 326°
2026-05-04 21:48 57.26841 12.57555 36602 ft 417 kts 326°
2026-05-04 21:48 57.31827 12.52580 35830 ft 409 kts 326°
2026-05-04 21:48 57.36857 12.47540 35007 ft 402 kts 325°
2026-05-04 21:49 57.41734 12.42639 34222 ft 396 kts 325°
2026-05-04 21:49 57.46498 12.37837 33435 ft 390 kts 325°
2026-05-04 21:49 57.51224 12.33060 32660 ft 384 kts 324°
2026-05-04 21:49 57.55885 12.28334 31897 ft 378 kts 324°
2026-05-04 21:50 57.60471 12.23669 31145 ft 373 kts 324°
2026-05-04 21:50 57.65045 12.19005 30397 ft 367 kts 324°
2026-05-04 21:50 57.69449 12.14502 29675 ft 362 kts 323°
2026-05-04 21:50 57.73825 12.10014 28930 ft 356 kts 323°
2026-05-04 21:51 57.78146 12.05569 28176 ft 351 kts 323°
2026-05-04 21:51 57.82401 12.01181 27424 ft 347 kts 323°
2026-05-04 21:51 57.86597 11.96842 26680 ft 342 kts 323°
2026-05-04 21:51 57.90743 11.92542 25946 ft 338 kts 322°
2026-05-04 21:52 57.94827 11.88297 25215 ft 334 kts 322°
2026-05-04 21:52 57.98861 11.84092 24493 ft 329 kts 322°
2026-05-04 21:52 58.02862 11.79909 23760 ft 326 kts 322°
2026-05-04 21:52 58.06802 11.75780 23054 ft 322 kts 322°
2026-05-04 21:53 58.10693 11.71692 22339 ft 318 kts 322°
2026-05-04 21:53 58.14543 11.67640 21639 ft 315 kts 322°
2026-05-04 21:53 58.17369 11.64627 21113 ft 310 kts 319°
2026-05-04 21:53 58.19079 11.62223 20686 ft 304 kts 312°
2026-05-04 21:54 58.22141 11.57279 20014 ft 300 kts 311°
2026-05-04 21:54 58.25283 11.52157 19326 ft 295 kts 311°
2026-05-04 21:54 58.28387 11.47108 18647 ft 291 kts 311°
2026-05-04 21:54 58.31442 11.42143 17981 ft 287 kts 311°
2026-05-04 21:55 58.34457 11.37239 17317 ft 283 kts 311°
2026-05-04 21:55 58.37432 11.32395 16669 ft 279 kts 311°
2026-05-04 21:55 58.40360 11.27614 16017 ft 275 kts 311°
2026-05-04 21:55 58.43252 11.22881 15372 ft 272 kts 311°
2026-05-04 21:56 58.46107 11.18201 14736 ft 268 kts 311°
2026-05-04 21:56 58.48884 11.13636 14117 ft 265 kts 311°
2026-05-04 21:56 58.51703 11.08995 13486 ft 262 kts 311°
2026-05-04 21:56 58.54407 11.04529 12878 ft 259 kts 311°
2026-05-04 21:57 58.57121 11.00042 12262 ft 256 kts 311°
2026-05-04 21:57 58.59809 10.95587 11649 ft 253 kts 311°
2026-05-04 21:57 58.62464 10.91177 11049 ft 251 kts 312°
2026-05-04 21:57 58.65089 10.86809 10439 ft 249 kts 313°
2026-05-04 21:58 58.67684 10.82481 9923 ft 243 kts 313°
2026-05-04 21:58 58.69022 10.80253 9676 ft 240 kts 313°
2026-05-04 21:58 58.70596 10.77618 9336 ft 238 kts 313°
2026-05-04 21:58 58.71842 10.75523 9059 ft 238 kts 313°
2026-05-04 21:59 58.73092 10.73429 8761 ft 238 kts 314°
2026-05-04 21:59 58.74340 10.71335 8466 ft 238 kts 314°
2026-05-04 21:59 58.75583 10.69255 8190 ft 236 kts 314°
2026-05-04 21:59 58.76820 10.67172 7920 ft 236 kts 314°
2026-05-04 22:00 58.78429 10.64461 7563 ft 235 kts 314°
2026-05-04 22:00 58.79909 10.61965 7235 ft 233 kts 314°
2026-05-04 22:00 58.81106 10.59896 6996 ft 228 kts 311°
2026-05-04 22:00 58.82223 10.57784 6836 ft 225 kts 310°
2026-05-04 22:01 58.83340 10.55618 6603 ft 230 kts 310°
2026-05-04 22:01 58.85571 10.51311 6107 ft 240 kts 311°
2026-05-04 22:01 58.86979 10.48606 5769 ft 238 kts 311°
2026-05-04 22:01 58.88151 10.46352 5490 ft 237 kts 311°
2026-05-04 22:02 58.89298 10.44151 5306 ft 227 kts 310°
2026-05-04 22:02 58.90291 10.41921 5179 ft 210 kts 301°
2026-05-04 22:02 58.91085 10.39642 5079 ft 200 kts 300°
2026-05-04 22:02 58.91845 10.37421 5004 ft 197 kts 300°
2026-05-04 22:03 58.92603 10.35228 4932 ft 196 kts 300°
2026-05-04 22:03 58.93361 10.33040 4849 ft 195 kts 300°
2026-05-04 22:03 58.94133 10.30821 4613 ft 203 kts 300°
2026-05-04 22:03 58.94931 10.28563 4400 ft 203 kts 305°
2026-05-04 22:04 58.96072 10.27142 4371 ft 203 kts 340°
2026-05-04 22:04 58.97017 10.26852 4246 ft 203 kts 344°
2026-05-04 22:04 58.98856 10.26427 3887 ft 199 kts 348°
2026-05-04 22:04 59.00229 10.26304 3638 ft 196 kts 351°
2026-05-04 22:05 59.01580 10.26256 3387 ft 192 kts 351°
2026-05-04 22:05 59.02904 10.26226 3120 ft 189 kts 351°
2026-05-04 22:05 59.03789 10.26208 2942 ft 187 kts 351°
2026-05-04 22:05 59.05460 10.26171 2631 ft 174 kts 352°
2026-05-04 22:06 59.06260 10.26154 2488 ft 166 kts 352°
2026-05-04 22:06 59.07343 10.26129 2269 ft 152 kts 352°
2026-05-04 22:06 59.08385 10.26103 2070 ft 147 kts 353°
2026-05-04 22:06 59.09405 10.26073 1876 ft 150 kts 354°
2026-05-04 22:07 59.10461 10.26050 1679 ft 150 kts 354°
2026-05-04 22:07 59.11505 10.26028 1476 ft 150 kts 355°
2026-05-04 22:07 59.12529 10.26004 1283 ft 149 kts 356°
2026-05-04 22:07 59.13567 10.25978 1095 ft 149 kts 356°
2026-05-04 22:08 59.14610 10.25958 883 ft 149 kts 356°
2026-05-04 22:08 59.15639 10.25931 692 ft 147 kts 356°
2026-05-04 22:08 59.16669 10.25908 486 ft 148 kts 357°
2026-05-04 22:08 59.17703 10.25899 274 ft 149 kts 355°
2026-05-04 22:09 59.18644 10.25833 279 ft 121 kts 357°
2026-05-04 22:09 59.19315 10.25833 284 ft 69 kts 360°
2026-05-04 22:09 59.19626 10.25830 292 ft 23 kts 360°
2026-05-04 22:09 59.19782 10.25835 293 ft 22 kts
2026-05-04 22:10 59.19860 10.25946 294 ft 16 kts 118°
2026-05-04 22:10 59.19789 10.26113 294 ft 16 kts 129°
2026-05-04 22:10 59.19701 10.26213 293 ft 15 kts 178°
2026-05-04 22:10 59.19598 10.26218 288 ft 14 kts 179°
2026-05-04 22:11 59.19500 10.26220 287 ft 14 kts 180°
2026-05-04 22:11 59.19406 10.26221 286 ft 13 kts 179°
2026-05-04 22:11 59.19395 10.26221 286 ft 0 kts 179°